RunnerspaceNewsView

2012 Results - NCAA D3 Cross Country Championships

Published by RunnerSpace.com/College
Nov 17 2012, 07:42 PM | 111835 views
PrintReport
Social
Images
2012 Results - NCAA D3 Cross Country Championships 2012 Results - NCAA D3 Cross Country Championships
NCAA D3 Cross Country Championships - Nov 17, 2012
LaVern Gibson Championship Course, Terre Haute, IN, US
Timing/Results by: Delta Timing Group, Inc. - Seymour - TN - Tim
 
| 6000m XC | 8000m XC
 
Womens 6k Back to top
  Bib# Name Yr School  Time  Pace  Pts
1 844 Cazzola, Christy 12 Wisconsin-Oshkos  20:53.3  5:37  1
2 721 Steinbrunner, Alison 12 Ohio Northern  21:08.9  5:41   
3 491 Lambert, Keri 12 Amherst  21:13.0  5:42  2
4 686 Tousley, Addie 12 Middlebury  21:14.7  5:42  3
5 757 Lee, Emma 12 St Olaf College  21:19.6  5:44  4
6 826 Mauer, Ashlyn 12 Wisconsin-Eau Cl  21:21.8  5:44  5
7 788 Enabnit, Alana 10 Wartburg  21:23.2  5:45  6
8 761 Berg, Taylor 12 St Thomas (MN)  21:23.8  5:45   
9 756 Johnson, Jorden 10 St Olaf College  21:25.4  5:45  7
10 644 Oneda, Hannah 9 Johns Hopkins Un  21:26.3  5:45  8
11 511 Skiba, Melissa 11 California Luthe  21:26.9  5:46   
12 797 Galligan, Kristen 10 Washington & Jef  21:27.4  5:46   
13 573 Crawley, Sheena 12 Franklin & Marsh  21:30.2  5:46   
13 787 Bruett, Sammi 11 Wartburg  21:30.2  5:46  9
15 760 Johnson, Chelsea 11 St Scholastica  21:30.3  5:46   
16 816 Kenny, Kaleigh 11 Williams  21:31.5  5:47  10
17 655 Moreno, Lenore 12 La Verne  21:32.5  5:47   
18 688 Keller, Linda 12 Minnesota-Morris  21:32.6  5:47   
19 678 Stone, Sophia 11 Mary Baldwin  21:33.0  5:47   
20 674 Serres, Tricia 9 Luther  21:33.3  5:47  11
21 800 Cheadle, Lucy 10 Washington U in  21:34.1  5:47   
22 762 Statz, Erin 11 St Thomas (MN)  21:36.6  5:48   
23 599 Hendry, Fiona 9 Haverford Colleg  21:44.2  5:50  12
24 537 Blum, Bridget 9 Claremont-Mudd-S  21:48.3  5:51  13
25 636 Clarke, Holly 11 Johns Hopkins Un  21:48.9  5:51  14
26 507 Mills, Olivia 12 Bridgewater (VA)  21:49.3  5:52   
27 727 Norton, Lauren 12 Rochester  21:50.3  5:52   
28 822 Strait, Adrienne 10 Williams  21:52.3  5:52  15
29 654 Willett, Jenna 11 Kenyon  21:53.0  5:53  16
30 830 Sawyer, Madison 11 Wisconsin-Eau Cl  21:54.3  5:53  17
31 781 Sizek, Julia 12 University of Ch  21:54.6  5:53  18
32 642 Monagle, Annie 12 Johns Hopkins Un  21:56.2  5:53  19
33 535 Barnwell, Allison 11 Claremont-Mudd-S  21:56.6  5:54  20
34 509 Malone, Rachel 10 SUNY Brockport  21:57.1  5:54   
35 713 Lyons, Carey 10 Oberlin  21:58.0  5:54  21
36 692 Johnson, Brooke 12 MIT  21:59.9  5:54  22
37 613 McCormack, Sheri 11 Hope  22:03.4  5:55  23
38 694 McVay, Elaine 10 MIT  22:04.4  5:56  24
39 746 Martin, Ella 9 St Lawrence  22:05.1  5:56  25
40 763 Regan, Amy 9 Stevens IT (NJ)  22:07.7  5:57   
41 831 Sjostrom, Steph 12 Wisconsin-Eau Cl  22:08.1  5:57  26
42 711 Lehmann, Emma 10 Oberlin  22:08.4  5:57  27
43 766 Moreno, Vanessa 11 Trinity (TX)  22:11.2  5:57  28
44 854 Duncan, Alyssa 12 Wisconsin-Whitew  22:11.8  5:58   
45 625 Williams, Rachael 12 Illinois Wesleya  22:12.1  5:58  29
46 665 Thomas, Emily 12 Lewis & Clark  22:12.9  5:58  30
47 530 Steinke, Ruth 9 Carleton  22:14.1  5:58  31
48 584 Burnell, Sarah 11 Grinnell  22:15.1  5:58   
49 795 Vawter, Haddie 11 Wartburg  22:16.4  5:59  32
50 508 Rouillard, Molly 12 Bridgewater Stat  22:17.6  5:59   
51 767 Murphy, Maddie 11 Trinity (TX)  22:19.8  6:00  33
52 731 Czohla, Danielle 12 Rowan  22:21.1  6:00  34
53 656 Patrick, Kelsey 9 Lebanon Valley  22:21.8  6:00   
54 561 Williams, Lauren 12 Elmhurst  22:22.3  6:00   
55 560 Tempone, Traci 11 Elizabethtown  22:25.1  6:01   
56 592 Hauer, Beth 12 Gustavus Adolphu  22:25.5  6:01  35
57 833 Conard, Corissa 10 Wisconsin-La Cro  22:25.7  6:01  36
58 555 Patterson, Sara 11 Dickinson  22:25.8  6:01  37
59 498 Fannon, Alicia 12 Bates  22:26.0  6:01  38
60 676 Storlie, Christina 12 Luther  22:26.3  6:01  39
61 730 Borz, Megan 11 Rowan  22:26.9  6:02  40
62 687 Whipps, Lucy 10 Middlebury  22:28.6  6:02  41
63 717 Neal, Lindsay 10 Oberlin  22:29.5  6:02  42
64 679 Schwab, Beth 11 Marywood Univers  22:30.1  6:03   
65 728 Zydanowicz, Hannah 10 Roger Williams  22:30.6  6:03   
66 540 Mostatabi, Sara 10 Claremont-Mudd-S  22:30.8  6:03  43
67 699 Mayden, Samantha 12 Muhlenberg  22:31.1  6:03   
68 774 Gould, Audrey 9 Tufts  22:31.4  6:03   
69 749 Raue, Caroline 12 St Lawrence  22:32.3  6:03  44
70 850 Kelly, McKenzie 12 Wisconsin-Oshkos  22:32.5  6:03  45
71 853 Colling, Julia 10 Wisconsin-Steven  22:33.1  6:03   
72 544 Dewdney, Berol 12 Colby (ME)  22:33.2  6:03   
73 663 Newton-Mora, Melissa 11 Lewis & Clark  22:34.3  6:04  46
74 695 Quinn, Sarah 9 MIT  22:34.4  6:04  47
75 522 McCarron, Emma 12 Capital  22:34.6  6:04   
76 575 Goodman, Cassie 10 SUNY Geneseo  22:34.8  6:04  48
77 706 Keller, Kirsten 11 NYU  22:35.2  6:04  49
78 607 Busman, Meredith 11 Hope  22:35.4  6:04  50
79 609 Hecker, Sharon 12 Hope  22:35.5  6:04  51
80 773 Steup, Rosemary 11 Trinity (TX)  22:36.1  6:04  52
81 813 Barbash, Shayna 11 Williams  22:36.2  6:04  53
81 527 Kaufman, Shira 9 Carleton  22:36.2  6:04  54
83 604 Tocci, Andrea 12 Haverford Colleg  22:36.3  6:04  55
84 539 Hogue, Marnie 12 Claremont-Mudd-S  22:36.8  6:04  56
85 641 Meehan, Sophia 9 Johns Hopkins Un  22:37.3  6:04  57
86 488 Briskin, Elizabeth 10 Amherst  22:38.0  6:05  58
87 703 Cousens, Emily 11 NYU  22:38.4  6:05  59
88 643 Murphy, Ashley 10 Johns Hopkins Un  22:39.0  6:05  60
88 645 Shegoski, Lara 11 Johns Hopkins Un  22:39.0  6:05  61
90 821 Smith, Alison 10 Williams  22:39.3  6:05  62
91 548 Clark, Michelle 12 Denison  22:40.8  6:05   
92 652 Plick, Natalie 9 Kenyon  22:41.8  6:06  63
93 786 Piepmeier, Aubree 11 Vassar  22:42.4  6:06   
94 691 Geus, Martina de 11 MIT  22:43.7  6:06  64
95 722 Weaver, Lydia 12 Ohio Northern  22:44.4  6:06   
96 545 Morrow, Erin 10 Colorado College  22:44.9  6:06   
97 725 Powell, Casey 11 Principia  22:45.0  6:07   
97 646 Fitter, Maggie 12 Keene State  22:45.0  6:07   
99 668 Cole, Jayne 11 Luther  22:45.3  6:07  65
100 512 Ardinger, Kate 10 Calvin  22:45.5  6:07  66
100 559 Wingerden, Jennifer Va 12 Drew University  22:45.5  6:07   
102 485 Almeida, Lauren 12 Amherst  22:45.7  6:07  67
103 751 Bevans, Becca 12 St Olaf College  22:45.9  6:07  68
104 837 Powell, Natalie 9 Wisconsin-La Cro  22:46.4  6:07  69
105 546 Cotey, Emily 11 SUNY Cortland  22:47.6  6:07   
106 579 Kowalewski, Cailin 12 SUNY Geneseo  22:48.5  6:07  70
107 605 Weathers, Nora 9 Haverford Colleg  22:49.1  6:08  71
108 741 Cymerman, Amy 11 St Lawrence  22:50.4  6:08  72
109 524 Donovan, Sally 9 Carleton  22:50.5  6:08  73
110 742 Edwards, Elizabeth 12 St Lawrence  22:50.7  6:08  74
111 514 Diemer, Mckenzie 9 Calvin  22:50.9  6:08  75
111 794 Sawyers, Erin 10 Wartburg  22:50.9  6:08  76
113 726 Matter, Michelle 12 Ripon  22:51.2  6:08   
114 516 Hartley, Christine 12 Calvin  22:51.4  6:08  77
115 783 Wummer, Elise 11 University of Ch  22:52.1  6:08  78
115 590 Fermoyle, Caitlin 10 Gustavus Adolphu  22:52.1  6:08  79
117 606 Borst, Camille 11 Hope  22:52.8  6:09  80
118 572 Krajewski, Nicole 11 Franciscan  22:53.9  6:09   
119 553 Ludman, Taylor 11 Dickinson  22:54.3  6:09  81
120 740 Beccia, Ariel 11 St Lawrence  22:54.4  6:09  82
121 533 Kummerer, Katie 11 Carthage  22:54.8  6:09   
121 785 Borchard, Evie 10 UC Santa Cruz  22:54.8  6:09   
123 506 Kubisiak, Kaylee 9 Bridgewater (VA)  22:55.1  6:09   
124 683 Maxwell, Alison 10 Middlebury  22:55.7  6:09  83
125 754 Exner, Meggie 11 St Olaf College  22:55.9  6:09  84
126 589 Eggers, Kate 12 Gustavus Adolphu  22:56.3  6:10  85
127 680 Attwood, Emily 11 Middlebury  22:56.6  6:10  86
128 596 Balmer, Kathryn 10 Haverford Colleg  22:57.2  6:10  87
129 501 Naranja, Gabrielle 11 Bates  22:57.5  6:10  88
130 801 Mark, Julia 12 Wesleyan  22:57.6  6:10   
131 779 Peluse, Sarah 11 University of Ch  22:57.7  6:10  89
132 519 Penning, Alyssa 12 Calvin  22:57.9  6:10  90
132 591 Hare, Rebecca 10 Gustavus Adolphu  22:57.9  6:10  91
134 496 Cullen, Lindsay 12 Bates  22:58.3  6:10  92
135 784 YOUNG, CATHERINE 9 University of Ch  22:58.8  6:10  93
135 504 Zeltner, Hannah 9 Bates  22:58.8  6:10  94
137 718 Taylor, Lauren 11 Oberlin  22:59.2  6:10  95
138 617 Anderson, Elise 12 Illinois Wesleya  22:59.5  6:10  96
139 672 Pierson, Maggie 11 Luther  22:59.7  6:10  97
140 789 Gerdes, Morgan 10 Wartburg  22:59.8  6:10  98
141 634 Rick, Alexa 10 Ithaca  23:00.2  6:11  99
142 806 Freeby, Michaela 10 Willamette  23:01.3  6:11  100
143 657 Leman, Nicole 12 LeTourneau  23:01.6  6:11   
144 543 Zimmerling, Aubrey 12 Claremont-Mudd-S  23:02.6  6:11  101
145 510 Kronauer, Kristina 12 Bryn Mawr  23:03.0  6:11   
146 702 Corsaro, Lily 9 NYU  23:03.7  6:12  102
147 635 Smith, Emily 10 Ithaca  23:04.2  6:12  104
147 777 Hickey, Brianna 9 University of Ch  23:04.2  6:12  103
149 520 Penning, Kimby 10 Calvin  23:04.5  6:12  105
150 534 Rady, Ashley El 10 Centre  23:04.9  6:12   
150 771 Pagano, Jessica 10 Trinity (TX)  23:04.9  6:12  106
152 827 Meurer, Elaina 9 Wisconsin-Eau Cl  23:05.4  6:12  107
153 518 Oram, Alyssa 11 Calvin  23:06.3  6:12  108
154 743 Lemme, Jackie 12 St Lawrence  23:06.5  6:12  109
155 523 Celichowski, Colette 10 Carleton  23:07.8  6:13  110
156 664 Spurling, Heather 12 Lewis & Clark  23:08.4  6:13  111
157 495 Carey-Hatch, Mira 11 Bates  23:08.8  6:13  112
158 603 Thorsheim, Chelsea 11 Haverford Colleg  23:09.0  6:13  113
159 769 Newell, Jackie 11 Trinity (TX)  23:09.9  6:13  114
159 720 Lang, Megan 12 Occidental  23:09.9  6:13   
161 500 Jay, Elena 10 Bates  23:10.1  6:13  115
162 802 Verduzco, Christine 12 Whittier  23:10.6  6:13   
162 684 Rominger, Katie 11 Middlebury  23:10.6  6:13  116
164 824 Jaeger, Kelsey 10 Wisconsin-Eau Cl  23:11.0  6:13  117
164 585 Rouse, Stephanie 12 Grinnell  23:11.0  6:13   
166 698 Shelby, Amanda 9 Mount St. Joseph  23:11.6  6:14   
167 707 Norton, Georgina 11 NYU  23:12.5  6:14  118
168 639 Loeb, Frances 10 Johns Hopkins Un  23:13.3  6:14  119
169 775 Cornelius, Maggie 9 University of Ch  23:13.9  6:14  120
170 666 Throgmorton, Kaitlyn 11 Lewis & Clark  23:15.2  6:15  121
171 796 Youngberg, Kirsten 12 Wartburg  23:15.5  6:15  122
172 838 Schroeder, Rachel 11 Wisconsin-La Cro  23:15.8  6:15  123
173 611 Mattarella, Taylor 12 Hope  23:16.1  6:15  124
174 630 Fay, Anna 9 Ithaca  23:16.2  6:15  125
175 505 Mollie, Gillberg 10 Bethel (MN)  23:16.4  6:15   
176 819 Ortiz, Amelia 10 Williams  23:16.5  6:15  126
177 493 Rose, Caroline 9 Amherst  23:17.0  6:15  127
178 566 Moriarty, Hannah 10 Emory  23:17.4  6:15  128
179 682 Guth, Sarah 10 Middlebury  23:17.7  6:15  129
180 620 Desalvo, Meagan 10 Illinois Wesleya  23:17.8  6:15  130
181 714 Martin, Caroline 12 Oberlin  23:19.5  6:16  131
182 799 Schultz, Lauren 12 Washington & Lee  23:19.9  6:16   
183 551 Dyroff, Anne 11 Dickinson  23:20.0  6:16  132
184 564 Gogniat, Marissa 10 Emory  23:20.4  6:16  133
184 689 Allen, Kaitlin 10 MIT  23:20.4  6:16  134
186 582 Steiinke, Rebekah 11 SUNY Geneseo  23:22.0  6:16  135
187 681 Carlson, Katie 10 Middlebury  23:22.1  6:16  136
188 621 Filippo, Katherine 12 Illinois Wesleya  23:22.3  6:17  137
189 556 Rutkowski, Sarah 10 Dickinson  23:22.8  6:17  138
190 739 Carl, Molly 12 Southern Maine  23:24.4  6:17   
191 531 Weeks, Ahna 10 Carleton  23:24.6  6:17  139
192 671 Mordini, Lauren 9 Luther  23:25.0  6:17  141
192 732 Hanke, Joy 12 Rowan  23:25.0  6:17  140
194 723 Reese, Bekah 12 Otterbein  23:25.5  6:17   
195 487 Black, Betsy 9 Amherst  23:26.1  6:18  142
196 602 Scott, Emily 11 Haverford Colleg  23:26.7  6:18  143
197 661 Keith, Katherine 10 Lewis & Clark  23:26.8  6:18  144
198 805 Farnan, Juliet 9 Willamette  23:27.2  6:18  145
199 758 Novacinski, Moriah 11 St Olaf College  23:27.8  6:18  146
200 782 Whitelaw, Michaela 11 University of Ch  23:28.2  6:18  147
201 710 Kerwin, Sarah Jane 10 Oberlin  23:28.9  6:18  148
202 554 Nolte, Mary 11 Dickinson  23:29.1  6:18  149
203 649 Campbell, Carolyn 11 Kenyon  23:29.3  6:18  150
204 538 Crawford, Kate 12 Claremont-Mudd-S  23:29.4  6:18  152
204 583 Sullivan, Emily 12 SUNY Geneseo  23:29.4  6:18  151
206 570 Surtees, Tamara 10 Emory  23:29.5  6:18  153
207 502 Solch, Amanda 11 Bates  23:30.0  6:19  154
208 823 Emerson, Monica 10 Wisconsin-Eau Cl  23:30.1  6:19  155
209 811 Tamanaha, Amanda 12 Willamette  23:30.9  6:19  156
210 798 Ortiz, Molly 12 Washington & Lee  23:31.0  6:19   
211 737 Wood, Deana 10 Rowan  23:33.5  6:20  157
212 724 Schreiber, Rachel 10 Pacific  23:33.8  6:20   
213 633 Malone, Carolyn 10 Ithaca  23:34.0  6:20  158
214 752 Brandt, Allison 12 St Olaf College  23:34.2  6:20  159
215 578 Knott, Alyssa 10 SUNY Geneseo  23:37.3  6:21  160
216 651 Heiden, Clara 10 Kenyon  23:37.7  6:21  161
217 618 Beck, Carmin 11 Illinois Wesleya  23:38.0  6:21  162
218 536 Beem, Lisa 11 Claremont-Mudd-S  23:39.0  6:21  163
219 526 Johnson, Haley 10 Carleton  23:39.6  6:21  164
220 517 Michmerhuizen, Nicole 11 Calvin  23:41.2  6:22  165
221 834 Gustafson, Abby 12 Wisconsin-La Cro  23:41.6  6:22  166
222 764 Dean, Jessie 11 Trinity (TX)  23:41.8  6:22  167
223 600 Hess, Sara 12 Haverford Colleg  23:42.3  6:22  168
224 547 Naylon, Jordyn 12 SUNY Cortland  23:43.4  6:22   
225 841 Stats-Wagner, Megan 12 Wisconsin-La Cro  23:44.1  6:22  169
226 574 Aldridge, Mary 11 SUNY Geneseo  23:45.1  6:23  170
227 792 Mapes, Lauren 11 Wartburg  23:45.7  6:23  171
228 567 Rivell, Aileen 9 Emory  23:46.1  6:23  172
229 842 Zych, Rebecca 10 Wisconsin-La Cro  23:49.9  6:24  173
230 624 Sampson, Alexis 11 Illinois Wesleya  23:50.5  6:24  174
231 586 Bache-Wiig, Meredith 12 Gustavus Adolphu  23:51.0  6:24  175
232 612 McCardel, Morgan 12 Hope  23:51.4  6:24  176
233 843 Bauer, Taylor 9 Wisconsin-Oshkos  23:51.8  6:24  177
234 696 Taylor, Alexandra 11 MIT  23:51.9  6:24  178
235 765 Hill, Nicola 10 Trinity (TX)  23:53.4  6:25  179
236 709 Sisk, Sarah 9 NYU  23:54.5  6:25  180
237 828 Rendler, Nikki 11 Wisconsin-Eau Cl  23:55.0  6:25  182
237 568 Smith, Hannah 10 Emory  23:55.0  6:25  181
239 660 Heinselman, Susan 10 Lewis & Clark  23:55.5  6:25  183
240 804 Edwards, Theresa 12 Willamette  23:57.5  6:26  184
241 845 Debaker, Allie 11 Wisconsin-Oshkos  23:58.1  6:26  185
242 848 Harrison, Danica 9 Wisconsin-Oshkos  23:58.2  6:26  187
242 563 Edwards, Calleson 12 Emory  23:58.2  6:26  186
244 490 Dao, Amy 11 Amherst  23:58.7  6:26  189
244 675 Stokke, Lauren 12 Luther  23:58.7  6:26  188
246 494 Tarantino, Olivia 10 Amherst  24:00.8  6:27  190
247 532 Wisekal, Aly 11 Carleton  24:01.5  6:27  191
248 840 Smith, Ellen 9 Wisconsin-La Cro  24:01.7  6:27  192
249 616 Anderson, Cassie 11 Illinois Wesleya  24:02.2  6:27  193
250 755 Gomoll, Andi 12 St Olaf College  24:03.7  6:28  195
250 648 Bruch, Tory 11 Kenyon  24:03.7  6:28  194
252 818 Mirecki, Brianne 11 Williams  24:04.5  6:28  196
253 629 Diamond, Anastasia 10 Ithaca  24:04.9  6:28  197
254 576 Heenan, Brigid 12 SUNY Geneseo  24:11.2  6:30  198
255 809 Marinello, Annette 10 Willamette  24:11.5  6:30  199
256 557 Shelgren, Mackenzie 9 Dickinson  24:17.0  6:31  200
257 631 Graham, Carly 12 Ithaca  24:19.2  6:32  201
258 632 Lisack, Jaime 9 Ithaca  24:20.0  6:32  202
259 614 Stock, Julia 9 Hope  24:21.6  6:32  203
260 594 Shurson, Lauren 9 Gustavus Adolphu  24:21.9  6:32  204
261 810 Ostrander, Taylor 9 Willamette  24:22.0  6:33  205
262 729 antuna, priscilla 11 Rowan  24:23.4  6:33  206
263 593 Schwictenberg, Lyndsi 11 Gustavus Adolphu  24:23.6  6:33  207
264 659 Fagan, Emily 11 Lewis & Clark  24:24.7  6:33  208
265 849 Jenkins, Sonny 10 Wisconsin-Oshkos  24:29.1  6:34  209
266 700 Binczyk, Alyssa 10 NYU  24:30.1  6:35  210
267 735 Prendegast, Gabrielle 11 Rowan  24:30.5  6:35  211
268 808 Gildehaus, Stevie 11 Willamette  24:31.4  6:35  212
269 549 Blinkhorn, Courtney 11 Dickinson  24:32.8  6:35  213
270 562 Crane, Stephanie 10 Emory  24:34.0  6:36  214
271 653 Strader, Kerry 11 Kenyon  24:34.6  6:36  215
272 734 Obelle, Onyinyechi 9 Rowan  24:34.9  6:36  216
273 670 Klepper, Annie 12 Luther  24:38.6  6:37  217
274 705 Gaffney, Amanda 11 NYU  24:39.5  6:37  218
275 650 Halper, Lizzie 10 Kenyon  24:59.2  6:43  219
276 851 Stockheimer, Kristin 12 Wisconsin-Oshkos  25:14.9  6:47  220
277 747 Martino, Anne 10 St Lawrence  27:05.4  7:16  221
Team Scores
Men's Team Scores PL Team Runners Points 1 2 3 4 5 6 7 1 North Central 5 9 31 36 86 93 104 167 2 Calvin 18 24 32 52 62 69 172 188 3 Haverford 8 21 35 55 70 83 112 189 4 Wis.-La Crosse 16 22 30 51 71 78 123 190 5 Washington U. 3 46 48 64 65 105 128 226 6 Bates 4 38 61 77 80 158 222 260 7 Tufts 26 34 63 68 74 96 169 265 8 Middlebury 13 42 60 81 90 103 132 286 9 Wheaton (Ill.) 14 23 53 101 124 130 156 315 10 Wis.-Eau Claire 10 19 57 108 129 146 147 323 11 C-M-S 27 43 58 76 125 135 164 329 12 Williams 12 66 82 97 99 106 148 356 12 Central College 20 28 41 107 160 170 200 356 14 St. Olaf 2 37 73 109 150 154 167 371 15 Allegheny 1 25 85 114 149 166 180 374 16 Bowdoin 6 11 113 127 133 177 212 390 17 Carnegie Mellon 29 50 84 111 145 207 210 419 18 Geneseo St. 7 40 89 152 155 159 179 443 19 Dickinson 39 54 102 126 134 162 188 455 20 Johns Hopkins 56 75 79 87 178 192 206 475 21 Rochester 44 115 117 119 122 173 186 517 22 NYU 33 49 142 153 163 217 219 540 23 Cortland St. 15 95 110 136 190 205 -- 546 24 Luther 47 94 131 137 175 187 194 584 25 Pomona-Pitzer 45 88 116 157 184 193 218 590 26 Lynchburg 17 120 121 174 185 213 214 617 27 St. Lawrence 59 138 143 161 197 202 220 698 28 Wabash 67 141 144 176 183 191 195 711 29 Manchester 92 98 171 182 189 204 221 732 30 Case Western 91 100 168 181 196 203 211 736 31 La Verne 72 139 140 208 209 215 216 768 32 Trinity (Tex.) 118 151 165 198 199 201 223 831 Women's Team Scores PL Team Runners Points 1 2 3 4 5 6 7 1 Johns Hopkins 8 14 19 57 60 61 119 158 2 Wartburg 6 9 32 76 98 122 171 221 3 C-M-S 13 20 43 56 101 152 163 233 4 Williams 10 15 53 62 126 196 -- 266 5 Wis.-Eau Claire 5 17 26 107 117 155 182 272 6 MIT 22 24 47 64 134 178 -- 291 7 St. Lawrence 25 44 72 74 82 109 221 297 8 St. Olaf 4 7 68 84 146 159 195 309 9 Oberlin 21 27 42 95 131 148 -- 316 10 Hope 23 50 51 80 124 176 203 328 11 Middlebury 3 41 83 86 116 129 136 329 12 Trinity (Tex.) 28 33 52 106 114 167 179 333 13 Haverford 12 55 71 87 113 143 168 338 14 Luther 11 39 65 97 141 188 217 353 15 U. of Chicago 18 78 89 93 103 120 147 381 16 Amherst 2 58 67 127 142 189 190 396 17 Carleton 31 54 73 110 139 164 191 407 18 Calvin 66 75 77 90 105 108 165 413 19 Bates 38 88 92 94 112 115 154 424 20 Lewis & Clark 30 46 111 121 144 183 208 452 21 Gustavus Adolphu 35 79 85 91 175 204 207 465 22 NYU 49 59 102 118 180 210 218 508 23 Dickinson 37 81 132 138 149 200 213 537 24 Ill. Wesleyan 29 96 130 137 162 174 193 554 25 Wis.-La Crosse 36 69 123 166 169 173 192 563 26 Geneseo St. 48 70 135 151 160 170 198 564 27 Rowan 34 40 140 157 206 211 216 577 28 Kenyon 16 63 150 161 194 215 219 584 29 Wis.-Oshkosh 1 45 177 185 187 209 220 595 30 Ithaca 99 104 125 158 197 201 202 683 31 Emory 128 133 153 172 181 186 214 767 32 Willamette 100 145 156 184 199 205 212 784

 



Post to:  
Post as: 
 
 
Switch to Full Version